Regional Weather Roundup
Issued by NWS

Home | Current Version | Previous Version | Graphics & Text | Print | Product List | Glossary On
Versions: 1 2 3 4 5 6 7 8 9 10 11 12 13 14 15 16 17 18 19 20 21 22 23 24 25 26 27
000
ASUS45 KSLC 030310
RWRUT

UTAH REGIONAL WEATHER ROUNDUP
NATIONAL WEATHER SERVICE SALT LAKE CITY UT
900 PM MDT MON MAY 02 2016

UTZ001>011-023>025-030400-

NORTHERN UTAH

CITY           SKY/WX    TMP DP  RH WIND       PRES   REMARKS
BRIGHAM CITY   CLEAR     62  30  30 CALM      30.16S
HILL AFB       CLEAR     56  30  36 NW6       30.17R
LOGAN          PTCLDY    60  32  34 W3        30.16R
OGDEN          CLEAR     58  30  34 NW3       30.15S
PROVO AIRPORT  CLEAR     57  37  47 NW10      30.15S
SALT LAKE CITY CLEAR     59  33  37 N7        30.15R
VERNAL         CLEAR     53  29  39 W3        30.16R
WENDOVER       CLEAR     61  36  39 SW5       30.16S
HEBER CITY     PTCLDY    50  32  50 CALM      30.16S

$$

UTZ012>022-026-027-030400-

SOUTHERN/CENTRAL UTAH

CITY           SKY/WX    TMP DP  RH WIND       PRES   REMARKS
BLANDING       PTCLDY    48  38  67 N6        30.26R
BRYCE CANYON   MOCLDY    38  35  89 NW5       30.27S WCI  34
CEDAR CITY     PTCLDY    49  38  65 E8        30.18R
DELTA          CLEAR     57  32  38 NE3       30.16R
HANKSVILLE     CLEAR     61  32  33 CALM      30.16R
MILFORD        CLOUDY    58  35  42 SW14      30.16R
MOAB/CYNLANDS  CLEAR     57  37  47 W3        30.12R
PRICE          PTCLDY    49  36  61 N9        30.17R
ST GEORGE      PTCLDY    64  39  39 NE6       30.10R

$$

REGIONAL REPORTS     COLORADO/ARIZONA

CITY           SKY/WX    TMP DP  RH WIND       PRES   REMARKS
CRAIG, CO      CLEAR     45  27  49 CALM      30.19R
GRAND JUNCTION CLEAR     56  35  45 N7        30.13R
RIFLE          CLEAR     52  27  38 W6        30.14R
MONTROSE       CLEAR     52  31  44 CALM      30.17R
CORTEZ         CLOUDY    47  39  74 VRB5      30.19R
PAGE, AZ       CLEAR     63  34  33 N5        30.13R
GRAND CANYON   PTCLDY    43  36  76 CALM      30.21R
KINGMAN        PTCLDY    64  39  39 NE7       30.06R
FLAGSTAFF      MOCLDY    39  39 100 NE3       30.21S

$$

REGIONAL REPORTS    NEVADA/IDAHO/WYOMING

CITY           SKY/WX    TMP DP  RH WIND       PRES   REMARKS
LAS VEGAS, NV  PTCLDY    76  34  21 NE12      29.97R
ELY            CLEAR     47  35  63 SE8       30.19R
ELKO           CLEAR     58  35  42 E3        30.14R
POCATELLO, ID  CLEAR     53  36  52 CALM      30.17R
BURLEY         CLEAR     58  34  40 NE5       30.12S
EVANSTON, WY   CLEAR     49  22  34 N8        30.23R
ROCK SPRINGS   CLEAR     46  15  28 SW7       30.22
KEMMERER         N/A     45  14  29 W6        30.24R

$$




USA.gov is the U.S. government's official web portal to all federal, state and local government web resources and services.